[[{"header":{"parameterUnit":"m.s-1","parameterCategory":1,"la1":30.2992,"la2":30.254,"lo1":-89.0895,"lo2":-89.0443,"dy":0.0025,"dx":0.0025,"nx":19,"ny":19,"refTime":"2026-04-06T21:00:00:Z","depth":0,"parameterNumber":2,"parameterNumberName":"U-component_of_WINDS"},"data":[0,0,0,-3.5103,-3.5109,-3.5347,-3.5347,-3.5691,-3.5694,0,0,0,0,0,0,0,0,0,0,0,-3.5053,-3.5056,-3.5103,-3.5109,-3.5347,-3.5347,-3.569,-3.5694,0,0,0,0,0,0,0,0,0,0,0,-3.5052,-3.5055,-3.5059,-3.511,-3.5346,-3.5347,-3.5689,-3.5497,0,0,0,0,0,0,0,0,0,0,-3.526,-3.5232,-3.5054,-3.5059,-3.5112,-3.5346,-3.5348,-3.5487,-3.5509,-3.5599,0,-3.5681,0,-3.5693,-3.5719,-3.5721,0,0,0,-3.5095,-3.5214,-3.5259,-3.506,-3.5114,-3.5346,-3.5235,-3.5499,-3.5524,-3.5628,-3.5685,-3.5697,-3.5699,-3.5722,-3.5724,-3.6284,-3.6288,0,0,-3.5082,-3.5108,-3.5242,-3.5276,-3.5238,-3.5228,-3.5243,-3.5513,-3.5579,-3.5687,-3.5705,-3.5704,-3.5724,-3.5727,-3.6281,-3.6285,0,0,0,-3.5054,-3.5099,-3.5137,-3.5263,-3.5303,-3.5235,-3.5252,-3.5567,-3.5577,-3.5708,-3.5708,-3.5726,-3.5731,-3.6278,-3.6283,-3.6475,0,0,0,-3.5045,-3.5083,-3.5132,-3.515,-3.5299,-3.5437,-3.5301,-3.5558,-3.5588,-3.5707,-3.5727,-3.5735,-3.6274,-3.628,-3.6461,-3.6564,0,0,0,-3.5031,-3.5081,-3.5122,-3.5151,-3.5254,-3.5432,-3.5457,-3.5564,-3.5589,-3.5721,-3.5736,-3.6271,-3.6279,-3.645,-3.6544,-3.6725,0,0,0,-3.5024,-3.5287,-3.5125,-3.5419,-3.5252,-3.5546,-3.5455,-3.5673,-3.5808,-3.5728,-3.6274,-3.6282,-3.6446,-3.6532,-3.6712,-3.6886,-3.6959,0,0,-3.5372,-3.533,-3.5501,-3.5363,-3.5693,-3.5507,-3.5867,-3.5966,-3.5955,-3.6176,-3.6189,-3.6466,-3.6543,-3.6722,-3.7343,-3.7401,0,0,0,-3.5621,-3.5745,-3.5826,-3.5956,-3.6036,-3.6116,-3.6157,-3.6194,-3.638,-3.6073,-3.6574,-3.6619,-3.6723,-3.6806,-3.6856,-3.6947,-3.6319,-3.6318,-3.6317,-3.6156,-3.6126,-3.6409,-3.6409,-3.6535,-3.6574,-3.6676,-3.6734,-3.6666,-3.6785,-3.6854,-3.7234,-3.7331,-3.7368,-3.7463,-3.6935,-3.6936,-3.6937,-3.6937,-3.667,-3.6845,-3.6746,-3.6987,-3.6955,-3.7158,-3.7206,-3.7152,-3.734,-3.7179,-3.7269,-3.7104,-3.7432,-3.7515,-3.6952,-3.6949,-3.6947,-3.6946,-3.6945,-3.7025,-3.7104,-3.7141,-3.7326,-3.7473,-3.7461,-3.7646,-3.7607,-3.7573,-3.7662,-3.7735,-3.7732,-3.7731,-3.7697,-3.7698,-3.77,-3.7701,-3.7702,-3.7703,-3.7383,-3.7418,-3.7578,-3.7684,-3.7764,-3.7863,-3.7904,-3.7982,-3.806,-3.8019,-3.8019,-3.7946,-3.7466,-3.7351,-3.7724,-3.772,-3.7717,-3.7715,-3.7714,-3.7931,-3.78,-3.8047,-3.8126,-3.825,-3.8402,-3.8346,-3.851,-3.8568,-3.8662,-3.8566,-3.8214,-3.8172,-3.8132,-3.8039,-3.8566,-3.8566,-3.8566,-3.8566,-3.8238,-3.8208,-3.8454,-3.8584,-3.8706,-3.8682,-3.8969,-3.9003,-3.9019,-3.9055,-3.897,-3.8838,-3.8799,-3.878,-3.8727,-3.8639,-3.9308,-3.9308,-3.9309,-3.8577,-3.8558,-3.8809,-3.8818,-3.8912,-3.8995,-3.9265,-3.9422,-3.9412,-3.9339,-3.9084,-3.9053,-3.8839,-3.8769,-3.8701,-3.8618,-3.8456,0,0]},{"header":{"parameterUnit":"m.s-1","parameterCategory":1,"la1":30.2992,"la2":30.254,"lo1":-89.0895,"lo2":-89.0443,"dy":0.0025,"dx":0.0025,"nx":19,"ny":19,"refTime":"2026-04-06T21:00:00:Z","depth":0,"parameterNumber":3,"parameterNumberName":"V-component_of_WINDS"},"data":[0,0,0,-4.4451,-4.4453,-4.4547,-4.4548,-4.4679,-4.468,0,0,0,0,0,0,0,0,0,0,0,-4.4431,-4.4432,-4.445,-4.4453,-4.4547,-4.4548,-4.4678,-4.468,0,0,0,0,0,0,0,0,0,0,0,-4.4431,-4.4432,-4.4434,-4.4453,-4.4547,-4.4548,-4.4678,-4.4603,0,0,0,0,0,0,0,0,0,0,-4.4509,-4.45,-4.4432,-4.4434,-4.4454,-4.4547,-4.4548,-4.4599,-4.4607,-4.4641,0,-4.4675,0,-4.468,-4.4689,-4.469,0,0,0,-4.4446,-4.4493,-4.4511,-4.4434,-4.4455,-4.4547,-4.4503,-4.4603,-4.4613,-4.4652,-4.4677,-4.4681,-4.4682,-4.469,-4.4691,-4.491,-4.4911,0,0,-4.4441,-4.4453,-4.4504,-4.4518,-4.4506,-4.45,-4.4506,-4.4609,-4.4636,-4.4677,-4.4684,-4.4684,-4.4691,-4.4692,-4.4909,-4.491,0,0,0,-4.4431,-4.4449,-4.4464,-4.4513,-4.4529,-4.4503,-4.451,-4.4631,-4.4635,-4.4685,-4.4685,-4.4692,-4.4694,-4.4907,-4.4909,-4.4986,0,0,0,-4.4427,-4.4443,-4.4462,-4.447,-4.4527,-4.4582,-4.453,-4.4628,-4.4639,-4.4685,-4.4692,-4.4695,-4.4906,-4.4908,-4.4981,-4.502,0,0,0,-4.4422,-4.4442,-4.4459,-4.4471,-4.4512,-4.458,-4.459,-4.463,-4.464,-4.469,-4.4696,-4.4905,-4.4908,-4.4976,-4.5012,-4.5079,0,0,0,-4.442,-4.4527,-4.4461,-4.458,-4.4511,-4.4627,-4.4589,-4.4675,-4.4727,-4.4693,-4.4906,-4.4909,-4.4974,-4.5008,-4.5075,-4.5137,-4.5165,0,0,-4.4561,-4.4545,-4.4614,-4.4557,-4.4688,-4.4612,-4.4754,-4.479,-4.4784,-4.4868,-4.4873,-4.4982,-4.5012,-4.5078,-4.5318,-4.5341,0,0,0,-4.4662,-4.4712,-4.4744,-4.4795,-4.4826,-4.4854,-4.4868,-4.4881,-4.4951,-4.483,-4.5025,-4.5042,-4.5081,-4.511,-4.5129,-4.516,-4.4923,-4.4923,-4.4923,-4.488,-4.4866,-4.4978,-4.4975,-4.5024,-4.5036,-4.5074,-4.5093,-4.5065,-4.5111,-4.5136,-4.5283,-4.5318,-4.5332,-4.5365,-4.5169,-4.5169,-4.5169,-4.517,-4.5085,-4.5152,-4.5111,-4.5205,-4.5188,-4.5267,-4.5281,-4.5258,-4.5327,-4.5264,-4.5298,-4.5229,-4.5357,-4.5385,-4.5175,-4.5174,-4.5174,-4.5173,-4.5173,-4.5225,-4.5254,-4.5268,-4.5338,-4.5392,-4.5384,-4.5452,-4.5435,-4.5419,-4.5452,-4.5474,-4.5473,-4.5468,-4.5464,-4.5464,-4.5465,-4.5465,-4.5466,-4.5466,-4.5364,-4.5377,-4.5437,-4.5476,-4.5505,-4.554,-4.5551,-4.5578,-4.5603,-4.5585,-4.5585,-4.5551,-4.5373,-4.5328,-4.5474,-4.5472,-4.5471,-4.5471,-4.547,-4.5575,-4.5524,-4.5616,-4.5645,-4.5688,-4.5742,-4.5718,-4.5774,-4.5794,-4.5827,-4.5785,-4.5657,-4.5638,-4.5623,-4.5585,-4.5789,-4.5789,-4.5789,-4.5789,-4.5692,-4.568,-4.5769,-4.5815,-4.5859,-4.5846,-4.5947,-4.5956,-4.5956,-4.5967,-4.5935,-4.5883,-4.5869,-4.5859,-4.5838,-4.5803,-4.6058,-4.6058,-4.6058,-4.582,-4.5811,-4.5902,-4.5903,-4.5934,-4.5961,-4.6055,-4.6108,-4.6098,-4.6068,-4.5974,-4.5963,-4.588,-4.5854,-4.5823,-4.5792,-4.5726,0,0]}]]